Flag Weather past 2 weeks in Homberg (Efze), Hesse, Germany

Now
32 °F

Fog.


Feels Like: 32 °F
Forecast: 33 / 40 °F
Wind: 1 mph from North

Location: Fritzlar

Current Time: Nov 27, 2014 at 8:14:31 AM

Latest Report: Nov 27, 2014 at 7:00 AM


Visibility: 0 mi

Pressure: 29.93 "Hg

Humidity: 98%

Dew point: 31 °F

Location of Homberg (Efze)Location

Historic Weather in Homberg (Efze) — Graph

°F

Homberg (Efze) temperature yesterday

Maximum temperature yesterday: 40 °F (at 12:00 AM)
Minimum temperature yesterday: 31 °F (at 8:00 AM)
Average temperature yesterday: 37 °F

Past Weeks' High & Low Weather Summary

 TemperatureHumidityPressure
High53 °F (Nov 14, 1:00 PM)99% (Nov 25, 5:00 AM)30.40 "Hg (Nov 25, 5:00 AM)
Low29 °F (Nov 22, 8:00 AM)67% (Nov 24, 3:00 PM)29.50 "Hg (Nov 16, 5:00 AM)
Average43 °F90%30.01 "Hg
* Reported Nov 12 7:00 AM — Nov 27 7:00 AM, Homberg (Efze), Weather by CustomWeather, © 2014

Note: Actual official high and low records may vary slightly from our data, if they occured in-between our weather recording intervals... More about our weather records

Advertising

Homberg (Efze) weather history for previous 24 hours

 ConditionsComfort  
Time TempWeatherWind HumidityBarometerVisibility
7:00 AM
Nov 27
32 °FFog.1 mph98%29.93 "Hg1 mi
6:00 AM32 °FFog.1 mph98%29.94 "Hg4 mi
5:00 AM31 °FFog.1 mph97%29.95 "Hg0 mi
4:00 AM33 °FFog.1 mph97%29.96 "Hg3 mi
3:00 AM33 °FFog.1 mph97%29.97 "Hg3 mi
2:00 AM34 °FFog.1 mph97%29.98 "Hg6 mi
1:00 AM35 °FFog.1 mph97%30.00 "Hg6 mi
12:00 AM36 °FOvercast.1 mph96%30.01 "Hg6 mi
11:00 PM
Nov 26
36 °FOvercast.No wind94%30.02 "Hg6 mi
10:00 PM36 °FOvercast.1 mph91%30.03 "Hg6 mi
9:00 PM36 °FOvercast.No wind92%30.04 "Hg6 mi
8:00 PM37 °FOvercast.2 mph83%30.05 "Hg8 mi
7:00 PM37 °FOvercast.3 mph82%30.06 "Hg8 mi
6:00 PM37 °FOvercast.2 mph82%30.06 "Hg8 mi
5:00 PM38 °FPassing clouds.3 mph80%30.06 "Hg8 mi
4:00 PM38 °FPartly sunny.3 mph78%30.06 "Hg8 mi
3:00 PM38 °FPartly sunny.3 mph77%30.07 "Hg8 mi
2:00 PM38 °FPartly sunny.3 mph78%30.09 "Hg8 mi
1:00 PM39 °FPartly sunny.3 mph78%30.11 "Hg8 mi
12:00 PM38 °FPartly sunny.3 mph78%30.12 "Hg8 mi
11:00 AM38 °FPartly sunny.2 mph77%30.14 "Hg7 mi
10:00 AM36 °FPartly sunny.2 mph84%30.15 "Hg6 mi
9:00 AM34 °FPartly sunny.2 mph89%30.16 "Hg6 mi
8:00 AM31 °FFog.N/A95%30.16 "Hg6 mi
Weather by CustomWeather, © 2014

See weather overviewHow to use our weather pages